This demonstration page uses our WeatherBlox Daily Observations layout. Learn more.

Left ArrowRight Arrow

Hourly Observations for April 7, 2018

Temp ( °F °C ) Dew Point ( °F °C ) Humidity (%) Winds ( mph kmh ) Pressure ( in mb ) Visibility ( mi km ) Precip ( " mm )
12:53 am 00:53 Clear 17 -8.3 11 -11.7 77 77 N 8 13 30.39 1029 10 16 0.00 0.00
1:53 am 01:53 Clear 15 -9.4 9 -12.8 77 77 N 8 13 30.39 1029 10 16 0.00 0.00
2:53 am 02:53 Clear 14 -10 8 -13.3 77 77 NNW 6 9 30.39 1029 10 16 0.00 0.00
3:53 am 03:53 Clear 13 -10.6 8 -13.3 81 81 NNW 7 11 30.39 1029 10 16 0.00 0.00
4:53 am 04:53 Clear 13 -10.6 7 -13.9 77 77 NNW 6 9 30.39 1029 10 16 0.00 0.00
5:53 am 05:53 Clear 12 -11.1 7 -13.9 80 80 NNW 6 9 30.37 1029 10 16 0.00 0.00
6:53 am 06:53 Cloudy 14 -10 9 -12.8 80 80 NNW 7 11 30.37 1028 10 16 0.00 0.00
7:53 am 07:53 Partly Cloudy 15 -9.4 9 -12.8 77 77 Calm 30.37 1029 10 16 0.00 0.00
8:53 am 08:53 Sunny 19 -7.2 8 -13.3 62 62 N 5 7 30.39 1029 10 16 0.00 0.00
9:53 am 09:53 Sunny 21 -6.1 9 -12.8 59 59 VRB 5 7 30.39 1029 10 16 0.00 0.00
10:53 am 10:53 Sunny 24 -4.4 11 -11.7 57 57 Calm 30.37 1029 10 16 0.00 0.00
11:53 am 11:53 Sunny 25 -3.9 14 -10 63 63 VRB 3 6 30.36 1028 10 16 0.00 0.00
12:53 pm 12:53 Sunny 28 -2.2 14 -10 56 56 ESE 3 6 30.33 1027 10 16 0.00 0.00
1:53 pm 13:53 Sunny 31 -0.6 13 -10.6 47 47 undefined N/A 30.28 1025 10 16 0.00 0.00
2:53 pm 14:53 Sunny 34 1.1 14 -10 44 44 undefined N/A 30.24 1024 10 16 0.00 0.00
3:53 pm 15:53 Sunny 36 2.2 12 -11.1 37 37 SSW 7 11 30.22 1023 10 16 0.00 0.00
4:53 pm 16:53 Sunny 37 2.8 13 -10.6 37 37 undefined N/A 30.17 1022 10 16 0.00 0.00
5:53 pm 17:53 Sunny 38 3.3 11 -11.7 33 33 S 9 15 30.16 1021 10 16 0.00 0.00
6:53 pm 18:53 Sunny 38 3.3 10 -12.2 31 31 S 10 17 30.14 1021 10 16 0.00 0.00
7:53 pm 19:53 Sunny 35 1.7 11 -11.7 37 37 SSE 6 9 30.11 1020 10 16 0.00 0.00
8:53 pm 20:53 Clear 33 0.6 12 -11.1 42 42 SSE 8 13 30.09 1019 10 16 0.00 0.00
9:53 pm 21:53 Clear 31 -0.6 14 -10 49 49 S 7 11 30.09 1019 10 16 0.00 0.00
10:53 pm 22:53 Clear 30 -1.1 14 -10 51 51 S 6 9 30.07 1018 10 16 0.00 0.00
11:53 pm 23:53 Partly Cloudy 31 -0.6 14 -10 49 49 S 8 13 30.03 1017 10 16 0.00 0.00

Powered by AerisWeather